Regional Weather Roundup
Issued by NWS

Home | Current Version | Previous Version | Text Only | Print | Product List | Glossary On
Versions: 1 2 3 4 5 6 7 8 9 10 11 12 13 14 15 16 17 18 19 20 21 22 23 24 25 26 27 28 29 30 31 32 33 34 35 36 37 38 39 40 41 42 43 44 45 46 47 48 49 50
000
ASUS44 KFWD 162015
RWRTX
NORTH TEXAS HOURLY WEATHER ROUNDUP
NATIONAL WEATHER SERVICE FORT WORTH TX
300 PM CDT MON OCT 16 2017

NOTE: "FAIR" INDICATES FEW OR NO CLOUDS BELOW 12,000 FEET WITH NO
SIGNIFICANT WEATHER AND/OR OBSTRUCTIONS TO VISIBILITY.

TXZ118-119-162100-
DALLAS/FORT WORTH METROPLEX

CITY           SKY/WX    TMP DP  RH WIND       PRES   REMARKS
DFW AIRPORT    SUNNY     72  37  28 N6        30.30F
DALLAS LOVE    SUNNY     73  35  25 NE7       30.31F
FTW MEACHAM    SUNNY     73  36  25 NE5       30.32F
DAL-EXECUTIVE  SUNNY     72  39  30 NE7       30.30F
FTW-ALLIANCE   SUNNY     72  33  24 NE7       30.32F
FTW-NAS-JRB    SUNNY     72  33  24 NE7       30.32F
FTW-SPINKS     SUNNY     72  34  25 N7        30.33F
ARLINGTON      SUNNY     71  34  25 N7        30.31F
GRAND PRAIRIE  SUNNY     70  36  28 N7        30.33F
ADDISON        SUNNY     72  37  28 NE10      30.31F
MESQUITE       SUNNY     72  37  28 N7        30.31F
LANCASTER      SUNNY     71  37  28 NE9       30.31F
$$

TXZ091>094-102>105-117-120-121-131>134-162100-
NORTH CENTRAL TEXAS

CITY           SKY/WX    TMP DP  RH WIND       PRES   REMARKS
SHRMAN/DENISON SUNNY     69  36  29 NE6       30.34F
GAINESVILLE    SUNNY     69  34  28 NE7       30.35F HAZE
BOWIE          SUNNY     69  36  30 NW5       30.33F
BRIDGEPORT     SUNNY     69  35  28 NW6       30.35F
DECATUR        SUNNY     71  32  23 NE6       30.31F
DENTON         SUNNY     72  39  30 N10       30.32F
MCKINNEY       SUNNY     71  39  31 CALM      30.31F
BONHAM         SUNNY     69  35  29 N8        30.32F
GREENVILLE     SUNNY     73  37  27 N7        30.31F
ROCKWALL       SUNNY     72  40  31 NE9       30.31F
TERRELL        SUNNY     72  35  25 N8        30.30F
WAXAHACHIE     SUNNY     71  40  32 NE3       30.32F
CLEBURNE       SUNNY     70  34  26 NE8       30.33F
GRANBURY       SUNNY     73  32  22 NW10      30.33F
$$

TXZ083>090-098>101-113>116-127>130-139>142-154-155-162100-
WESTERN NORTH TEXAS

CITY           SKY/WX    TMP DP  RH WIND       PRES   REMARKS
WICHITA FALLS  SUNNY     69  38  32 VRB5      30.34F
WF-KICKAPOO    SUNNY     69  34  26 CALM      30.37F
VERNON         SUNNY     71  25  17 CALM      30.35F
ABILENE        SUNNY     69  31  24 NE8       30.35F
ABILENE-DYESS  SUNNY     68  40  36 CALM      30.35F
GRAHAM           N/A     71  38  30 NW3       30.32F
BRECKENRIDGE   SUNNY     73  35  25 MISG      30.34F HAZE
CISCO          SUNNY     68  32  26 CALM      30.36F
EASTLAND       SUNNY     70  34  27 NE7       30.33F
RANGER         SUNNY     68  38  33 N5        30.34F
MINERAL WELLS  SUNNY     72  32  23 VRB3      30.31F
STEPHENVILLE   SUNNY     72  30  21 NE7       30.35F
COMANCHE       SUNNY     71  35  26 NE3       30.34F
BROWNWOOD      SUNNY     72  27  18 E6        30.33F
COLEMAN        SUNNY     72  29  20 E6        30.34F
$$

TXZ143>147-156>162-174-175-162100-
CENTRAL TEXAS

CITY           SKY/WX    TMP DP  RH WIND       PRES   REMARKS
WACO           SUNNY     75  38  26 N10G20    30.29F
WACO-TSTC      SUNNY     73  37  27 N6G20     30.29S
WACO-MCGREGOR  SUNNY     73  39  29 NE9       30.29F
HILLSBORO      SUNNY     72  41  33 N14       30.30F
CORSICANA      SUNNY     73  42  32 N9        30.29F
MEXIA          SUNNY     72  38  28 NW12      30.27F
HEARNE         SUNNY     74  43  32 NW10G18   30.26F
CAMERON        SUNNY     74  42  31 N9G22     30.26F
TEMPLE         SUNNY     74  40  29 N9G17     30.29F
KILLEEN        SUNNY     72  37  28 NE9       30.28F
KILLEEN-SKYLRK SUNNY     73  41  31 N10       30.29F
FORT HOOD      SUNNY     72  38  28 N10       30.26F
GATESVILLE     SUNNY     72  37  28 VRB7      30.31F
HAMILTON       SUNNY     71  34  25 N13       30.33F
LAMPASAS       SUNNY     71  36  28 N9        30.30F
$$

TXZ095>097-106>112-122>126-135>138-148>153-164>167-162100-
EAST TEXAS

CITY           SKY/WX    TMP DP  RH WIND       PRES   REMARKS
PARIS          SUNNY     70  38  31 E6        30.31F
SULPHUR SPRNGS SUNNY     72  35  26 NE7       30.32F
MOUNT PLEASANT SUNNY     72  36  27 NE7       30.30F
GILMER         SUNNY     69  39  32 CALM      30.28F
MINEOLA        SUNNY     72  37  28 N8        30.28F
TYLER          SUNNY     73  37  27 MISG      30.27F
LONGVIEW       SUNNY     73  41  31 NE9G18    30.26F
MARSHALL       SUNNY     73  33  23 NE8       30.29F
ATHENS         SUNNY     70  37  30 N8        30.27F
PALESTINE      SUNNY     73  43  34 N7G16     30.28F
JACKSONVILLE   SUNNY     71  42  33 N9        30.28F
HENDERSON      SUNNY     72  41  32 N15       30.27F
CENTER         CLEAR     75  44  32 N13       30.25F
NACOGDOCHES    SUNNY     74  42  31 NE9G16    30.24F
LUFKIN         SUNNY     73  45  36 N14G20    30.22F
$$

SUPPLEMENTAL OBSERVATIONS (NWS FORT WORTH AREA)

CITY           SKY/WX    TMP DP  RH WIND       PRES   REMARKS
DENISON DAM      N/A     66  37  34 W9          N/A
CADDO GRASSLND   N/A     72  36  26 E3          N/A
PAT MAYSE LAKE   N/A     70  32  24 NW5         N/A
GREENVILLE       N/A     72  34  25 NE9         N/A
CEDAR HILL       N/A     73  37  27 N6          N/A
LBJ GRASSLAND    N/A     73  34  23 NW5         N/A
MCGREGOR         N/A     73  36  25 N8G16       N/A
ATHENS           N/A     73  37  27 N3          N/A
$$

SUPPLEMENTAL OBSERVATIONS (NWS NORMAN AREA)

CITY           SKY/WX    TMP DP  RH WIND       PRES   REMARKS
GOODLETT         N/A     70  31  24 SE3       30.34F
ODELL            N/A     70  34  26 S7        30.35F
CROWELL          N/A     71  33  24 S5        30.35F
KNOX CITY        N/A     71  28  20 E3        30.36F
SEYMOUR          N/A     70  33  25 E5        30.35F
MILLERS CREEK    N/A     70  36  28 E6          N/A
$$

SUPPLEMENTAL OBSERVATIONS (NWS SAN ANGELO AREA)

CITY           SKY/WX    TMP DP  RH WIND       PRES   REMARKS
WEINERT          N/A     70  33  26 SE5       30.36F
HASKELL          N/A     68  31  25 S2        30.35F
THROCKMORTON     N/A     71  37  28 NE3       30.36F
STAMFORD         N/A     70  34  25 E6        30.35F
CLYDE            N/A     69  34  27 E7        30.36F
HAMBY            N/A     72  34  25 NE3G12      N/A
IVIE RESERVOIR   N/A     73  32  21 VRB5        N/A
COLORADO BEND    N/A     73  32  21 NE6G14      N/A
$$

SUPPLEMENTAL OBSERVATIONS (NWS SHREVEPORT AREA)

CITY           SKY/WX    TMP DP  RH WIND       PRES   REMARKS
CLARKSVILLE      N/A     72  34  25 N7          N/A
TEXARKANA        N/A     72  37  28 NE7G16      N/A
LINDEN           N/A     75  37  25 N3G15       N/A
CADDO LAKE       N/A     75  37  25 E5G14       N/A
GILMER           N/A     72  39  30 N6G14       N/A
HENDERSON        N/A     73  37  27 NE9G17      N/A
LUFKIN           N/A     73  43  33 MISG        N/A
N SABINE NF      N/A     73  48  40 MISG        N/A
S SABINE NF      N/A     73  48  40 VRB7G16     N/A
$$

SUPPLEMENTAL OBSERVATIONS ARE A COLLECTION OF AUTOMATED INSTRUMENTS
THAT ARE MAINTAINED BY A VARIETY OF FEDERAL AND STATE AGENCIES.
CERTAIN ELEMENTS...SUCH AS HUMIDITY VALUES AND SUSTAINED WIND
SPEEDS...MAY BE APPROXIMATED.





USA.gov is the U.S. government's official web portal to all federal, state and local government web resources and services.